星链-37280(STARLINK-37280)

导读

STARLINK-37280(NORAD编号68511)是SpaceX星链星座中的一颗卫星,属于星链项目扩容批次的组网卫星,被纳入Starlink Gen2星座部署计划,用于扩展全球卫星互联网覆盖范围。 作为低轨通信卫星,它运行在近地轨道,依托星链星座设计可为偏远地区、移动场景提供宽带互联网接入服务。截至2026年3月,SpaceX已累计发射超1.1万颗星链卫星,其中超八成在轨正常运行,该卫星是星链全球组网进程中的组成单元,助力星链实现全球无缝覆盖的目标。

基本信息
目录编号:
68511
目录名称:
STARLINK-37280
国际标识:
2026-068D
轨道中心:
EARTH
卫星名称:
星链-37280
卫星全名:
星链-37280(STARLINK-37280)
卫星状态:
在轨 (已飞行159 天)
发射日期:
2026-03-30 UTC
国别 :
美国 (US)
星等 :
--
轨道信息
数据来源 国际轨道数据
星历时间: 2026-09-05T02:16:03+0800
14小时前
查看轨道信息
半长轴: 6840.824km
偏心率: 0.0001065
轨道倾角: 53.159°
近地点辐角 85.606°
升交点赤经 7.291°
平近点角 274.507°
近地点: 461.958km
远地点: 463.416km
周期: 93.847分钟
每日圈数: 15.344058
详细信息
固有亮度:
5
最大亮度:
2.5
卫星平台:
Starlink V1.0
覆盖范围:
全球
运营商:
太空探索技术公司
运营商所在国:
美国
制造商(研发单位):
太空探索技术公司
制造商所在国:
美国
使用方式:
暂无
卫星简介
Starlink 计划是 SpaceX 推出的全球卫星互联网项目,通过发射低轨道卫星,为全球尤其是偏远地区提供高速、低延迟的互联网服务。自 2019 年起,Starlink 已部署数千颗卫星,旨在缩小全球数字鸿沟,推动互联网普及。该项目还为军事、航空等行业提供通信支持,带来广泛经济效益。
2D轨道图
3D轨道图
轨道高度分析图
轨道倾角分析图
轨道综合分析图
查看轨道综合分析图
交会数据列表
事件ID 空间交会对象 最接近时刻(TCA) 交会距离 交会风险概率(CRP) 交会风险指数(CRI) 操作
CDM_260907-153206-125706-851121
2026-09-07T
15:32:26+0000
0.400 km
远距离
2.206312E-4 高风险 0.82
CDM_260907-170606-125706-851121
2026-09-07T
17:06:14+0000
2.677 km
极远距离
1.032302E-6 低风险 0.35